Regional Weather Roundup
Issued by NWS

Home | Current Version | Previous Version | Text Only | Print | Product List | Glossary On
Versions: 1 2 3 4 5 6 7 8 9 10 11 12 13 14 15 16 17 18 19 20 21 22 23 24 25 26 27 28 29 30 31 32 33 34 35 36 37 38 39 40 41 42 43 44 45 46 47 48 49 50
000
ASCA44 KEWX 020520
RWRMX

LATIN AMERICA AND CARIBBEAN REGIONAL WEATHER ROUNDUP
NATIONAL WEATHER SERVICE AUSTIN/SAN ANTONIO TX
1200 AM CDT SAT AUG 02 2014

NOTE: "FAIR" INDICATED FEW OR NO CLOUDS BELOW 12,000 FEET WITH NO
SIGNIFICANT WEATHER AND/OR OBSTRUCTIONS TO VISIBILITY.

BAJA CALIFORNIA

CITY           SKY/WX    TMP DP  RH WIND       PRES   REMARKS
LA PAZ         PTCLDY    84  72  65 CALM      29.92
MEXICALI       MOCLDY    93  64  38 SE6       29.77  HX  95
S.J. DEL CABO  CLEAR     84  72  65 CALM      29.91R
TIJUANA        PTCLDY    68  61  77 NW6       29.92S

NORTHWESTERN MEXICO

CITY           SKY/WX    TMP DP  RH WIND       PRES   REMARKS
CULIACAN         N/A    N/A N/A N/A MISG        N/A
DURANGO        MOCLDY    63  55  77 CALM      30.31R
LOS MOCHIS       N/A    N/A N/A N/A MISG        N/A

NORTHEASTERN MEXICO

CITY           SKY/WX    TMP DP  RH WIND       PRES   REMARKS
CHIHUAHUA      MOCLDY    68  57  68 NW6       30.20
MONTERREY      PTCLDY    84  66  54 NW13G26   29.99R
NUEVO LAREDO   CLOUDY    77  75  94 SW6       29.99
REYNOSA        PTCLDY    81  72  74 SE12      29.95
SALTILLO       PTCLDY    75  59  57 N12       30.22R
TORREON        TSTM      66  61  82 W8        30.21R
CD. VICTORIA   CLEAR     82  70  65 S9G21     29.95

WESTERN MEXICO

CITY           SKY/WX    TMP DP  RH WIND       PRES   REMARKS
AGUASCALIENTES CLEAR     64  52  63 NE5       30.26
DEL BAJIO      CLEAR     70  37  30 NW5       30.27R
GUADALAJARA    MOCLDY    68  61  77 W6        30.18
MAZATLAN       MOCLDY    75  70  83 N8        29.88R
P. VALLARTA    PTCLDY    79  73  83 CALM      29.88S
ZACATECAS      PTCLDY    63  48  59 S6        30.31R

CENTRAL MEXICO

CITY           SKY/WX    TMP DP  RH WIND       PRES   REMARKS
MEXICO CITY    PTCLDY    64  46  52 NW6       30.36R
MORELIA        CLEAR     61  57  88 CALM      30.24
POZA RICA      PTCLDY    82  72  69 SE7       29.90
QUERETARO      CLEAR     64  54  68 CALM      30.30R
S. LUIS POTOSI CLEAR     64  45  48 SE5       30.28R
TOLUCA         MOCLDY    57  43  58 NE10      30.42R

SOUTHERN MEXICO

CITY           SKY/WX    TMP DP  RH WIND       PRES   REMARKS
ACAPULCO       PTCLDY    86  77  74 W9        29.86R HX  97

YUCATAN PENINSULA

CITY           SKY/WX    TMP DP  RH WIND       PRES   REMARKS
CANCUN         PTCLDY    79  75  89 NE3       29.98S
COZUMEL        PTCLDY    73  73 100 CALM      29.98
MERIDA         CLEAR     81  70  69 E6        29.96F
TAPACHULA      MOCLDY    75  73  94 CALM      29.89R
TUX. GUTIERREZ PTCLDY    73  66  78 E5        29.98R

CENTRAL AMERICA

CITY           SKY/WX    TMP DP  RH WIND       PRES   REMARKS
MANAGUA        PTCLDY    82  72  69 E7        29.86S

CARIBBEAN

CITY           SKY/WX    TMP DP  RH WIND       PRES   REMARKS
ARUBA          PTCLDY    82  77  83 E18       29.86S HX  91
KINGSTON       PTCLDY    82  73  74 N6        29.92F
NASSAU         PTCLDY    81  73  78 CALM      29.98S
SAN JUAN       PTCLDY    81  75  83 VRB7      29.98F
SANTO DOMINGO  PTCLDY    77  72  83 NE5       29.94S
ST. MAARTEN    PTCLDY    82  73  74 E16G33    29.94F

$$




USA.gov is the U.S. government's official web portal to all federal, state and local government web resources and services.